Tracking 19562 objects as of 24-Mar-2019
HD Live streaming from Space Station
objects crossing your sky now

RADIO 8

Track RADIO 8 now!
10-day predictions
RADIO 8 is classified as:


NORAD ID: 12998
Int'l Code: 1981-120B
Perigee: 1,657.7 km
Apogee: 1,690.1 km
Inclination: 83.0 °
Period: 119.7 minutes
Semi major axis: 8044 km
RCS: 0.8671 m2 (medium)
Launch date: December 17, 1981
Source: Commonwealth of Independent States (former USSR) (CIS)
Launch site: PLESETSK MISSILE AND SPACE COMPLEX (PKMTR)

Uplink (MHz):
Downlink (MHz):
Beacon (MHz):
Mode:
Call sign:
Status: Inactive

aabbcc
Your satellite tracking list
Your tracking list is empty




NASA's NSSDC Master Catalog

Two Line Element Set (TLE):
1 12998U 81120B   19082.59193434 -.00000073 +00000-0 -98268-3 0  9997
2 12998 082.9546 111.7617 0020158 123.7816 351.2976 12.03154960636361
Source of the keplerian elements: AFSPC